Dewpoint
51 51 50 53 52 52 50 50 49 48 49 50 51 53 53 54 52 49 49 51 54 56 57 57 58 57 57 58 58 57 57 56 56 54 55 56 56 55
52 51 50 52 53 53 52 51 51 50 48 51 52 53 53 53 52 52 51 50 53 55 56 56 56 57 57 57 57 57 57 57 57 56 56 56 56 56
51 51 50 52 54 53 53 52 52 51 49 51 53 53 53 53 52 52 53 51 52 54 55 55 55 55 55 55 55 55 55 55 56 56 56 56 56 57
51 51 50 51 54 54 54 53 52 53 51 50 52 52 52 53 52 52 52 53 52 52 54 54 54 54 54 54 53 54 53 54 54 55 55 56 56 55
52 51 50 50 53 54 54 53 53 53 52 51 51 52 52 53 51 52 52 52 53 50 53 54 54 54 53 53 53 53 52 52 52 53 53 54 54 54
53 52 51 51 51 54 54 54 53 53 52 52 52 52 53 52 53 52 51 52 52 52 51 51 52 52 53 53 52 51 50 51 52 52 52 51 51 52
54 53 53 51 48 53 54 54 54 53 52 52 51 51 51 51 52 52 52 52 51 52 51 50 51 51 51 52 50 49 50 50 51 52 52 52 51 51
53 54 53 49 49 50 51 51 53 53 52 52 52 51 52 52 53 52 51 50 49 52 51 51 51 50 50 51 51 50 50 50 51 51 51 51 51 50
53 53 53 53 50 51 49 50 51 50 51 52 52 52 52 52 53 52 52 51 50 51 52 51 51 51 52 51 50 50 50 50 50 50 50 50 50 49
53 53 53 53 52 52 51 51 52 53 52 53 53 53 53 53 53 53 53 52 51 52 53 50 50 52 52 53 51 50 50 50 49 49 49 49 48 48
53 53 53 53 51 49 52 51 51 53 51 49 50 51 50 51 52 53 52 51 50 51 53 51 50 50 50 51 53 50 50 49 49 49 49 48 48 48
54 54 49 53 49 49 52 52 51 52 53 53 52 50 50 51 49 53 53 51 50 49 51 52 49 49 47 48 51 51 50 49 49 49 49 48 48 47
43 45 45 45 46 49 50 53 52 52 52 53 53 53 54 53 53 54 54 53 52 52 52 53 48 47 45 45 46 48 50 47 49 48 48 48 48 47
38 40 42 43 44 45 48 51 50 50 53 53 53 53 53 54 54 54 55 55 55 54 52 54 46 51 47 40 44 45 47 48 48 48 47 48 48 48
37 38 39 40 42 43 41 45 48 53 53 53 53 53 53 54 54 54 54 55 55 54 52 53 51 51 50 48 46 43 45 46 47 48 47 47 47 46
33 34 35 36 36 38 38 37 40 46 53 53 53 54 54 54 53 53 52 53 53 53 48 52 53 52 49 50 49 40 45 43 47 48 46 47 46 46
29 30 30 30 30 31 32 32 34 34 36 38 42 45 51 53 52 52 51 50 50 51 50 38 43 49 46 49 44 49 46 43 46 48 44 45 46 47
25 24 24 24 24 25 26 27 28 29 30 33 35 36 36 37 36 39 47 49 49 50 50 44 38 36 35 36 38 40 47 47 43 45 42 44 42 43
22 22 22 22 23 23 24 24 25 26 28 28 29 31 32 33 34 35 35 40 48 49 49 43 44 44 43 44 34 34 35 35 36 34 35 36 37 38
21 21 21 21 22 22 23 23 24 25 25 26 27 28 29 31 32 33 33 34 34 33 33 33 35 41 43 44 36 31 33 34 34 33 32 33 33 36
20 20 21 21 21 22 22 22 23 23 24 24 25 26 27 28 28 29 30 33 33 33 32 31 30 35 33 34 32 28 30 33 33 32 32 32 31 31
18 18 19 20 20 20 21 21 20 21 22 23 23 24 26 27 26 27 27 27 27 27 27 28 29 31 31 33 29 26 27 28 31 32 32 32 28 26
14 17 17 18 18 18 19 19 18 18 20 21 22 23 24 24 26 26 26 27 26 26 26 26 26 27 26 27 25 24 25 26 26 25 27 30 31 31
Lifted_Index
7 7 7 7 7 7 8 8 8 8 8 7 7 7 8 8 8 9 10 11 11 10 9 8 8 8 8 9 8 9 9 9 10 10 9 9 9 9
6 7 7 7 6 6 7 7 8 7 7 7 7 7 7 8 8 8 9 10 10 10 9 9 8 8 9 9 9 9 9 9 9 9 9 9 9 9
6 6 7 6 6 6 6 6 7 7 6 6 6 7 7 7 7 8 9 9 10 10 9 9 9 9 9 9 10 10 10 10 10 9 9 9 9 9
5 6 6 6 6 5 5 5 5 6 6 6 6 6 7 7 7 7 8 8 9 9 9 9 9 9 9 10 10 10 10 10 10 9 9 9 9 9
5 5 5 6 6 5 5 5 5 5 5 5 5 6 6 7 7 7 8 8 8 8 9 9 9 9 10 10 10 10 10 10 10 9 9 9 9 9
4 4 4 5 6 5 5 5 5 5 5 5 5 5 6 6 6 7 7 8 7 8 8 8 8 9 9 9 10 10 10 9 9 9 9 9 9 9
4 4 4 4 5 5 5 5 5 5 5 5 5 5 6 6 6 7 7 7 7 7 7 7 8 8 8 8 8 9 9 9 9 9 9 9 9 9
4 3 4 4 5 5 5 5 5 5 5 5 5 5 5 6 6 6 7 7 7 7 7 7 7 7 7 7 7 7 8 8 8 8 8 9 9 9
4 4 4 4 4 5 5 5 5 5 5 5 5 5 5 5 6 6 6 6 6 6 6 6 6 6 6 6 7 7 7 7 7 7 8 9 9 9
3 4 4 4 4 5 5 5 5 5 5 5 5 5 4 5 5 5 6 6 5 5 5 5 5 5 5 6 6 6 7 7 7 7 8 8 9 9
2 3 3 4 4 4 4 5 5 5 5 5 5 4 4 4 4 5 5 5 5 5 4 4 4 5 5 5 5 6 6 7 7 7 8 8 9 9
2 2 3 3 3 3 4 4 4 4 4 4 4 4 4 4 4 4 4 4 4 4 4 4 4 4 4 4 5 5 6 6 7 7 8 8 9 9
2 2 2 2 3 3 3 3 3 3 3 3 4 4 4 4 4 4 4 3 3 3 3 3 4 4 4 4 4 4 5 5 6 7 7 8 9 9
3 3 2 2 2 2 2 2 2 2 2 3 3 3 3 3 3 3 3 3 3 3 3 3 3 3 3 4 4 4 4 4 5 5 6 7 8 8
4 4 4 3 2 3 2 2 2 2 2 3 3 3 3 3 3 3 3 3 3 3 2 2 3 3 3 3 3 3 3 3 3 4 4 5 6 7
6 6 6 5 4 4 3 3 3 3 3 3 3 3 3 2 2 2 3 3 3 3 3 2 2 2 3 3 3 3 3 2 2 3 3 4 5 6
7 7 7 6 6 5 5 4 4 3 3 3 3 3 3 2 2 2 3 3 3 3 3 3 2 2 3 3 3 3 3 2 2 2 3 3 5 6
9 8 8 7 6 6 6 6 5 5 4 4 3 3 3 3 3 3 3 3 3 3 3 3 3 2 3 3 3 3 3 3 2 2 3 3 4 5
11 11 10 9 8 8 7 6 6 6 5 5 4 4 3 3 3 3 3 3 3 3 3 3 3 2 3 3 3 4 4 4 3 3 4 4 5 6
15 14 13 12 12 11 10 9 8 7 6 6 5 5 4 4 4 4 4 4 4 4 4 4 3 3 3 3 3 4 5 5 5 5 5 5 6 7
19 18 17 17 16 16 15 14 12 10 9 9 8 7 6 6 5 5 5 5 5 5 5 5 5 5 4 4 4 4 6 7 8 8 8 7 7 7
21 21 21 20 20 19 19 18 16 15 13 13 12 11 10 9 8 7 7 6 6 6 6 7 7 7 6 6 5 6 7 9 11 11 11 11 10 10
22 22 23 22 22 21 21 20 19 17 17 16 15 14 13 11 10 9 8 8 7 7 7 8 8 8 8 7 7 7 8 9 11 12 13 14 14 14